#timestamp,LO_Frequency,Hit,StdDev 
1618279215.8,286047001.4,N
1618279235.7,286047000.3,N
1618279255.5,286047000.2,N
1618279275.4,286047001.0,N
1618279295.2,286047002.1,N
1618279315.0,286047000.0,N
1618279316.0,286047000.0,N
1618279335.8,286047002.0,N
1618279355.6,286047000.0,N
1618279375.5,286046999.8,N
1618279395.3,286047002.3,N
1618279415.1,286047003.5,N
1618279435.9,286047002.0,N
1618279455.7,286047002.2,N
1618279475.6,286047000.2,N
1618279495.4,286047000.8,N
1618279515.2,286047000.2,N
1618279535.1,286047000.8,N
1618279536.0,286047000.8,N
1618279555.8,286046999.3,N
1618279575.6,286046996.9,N
1618279595.5,286046998.2,N
1618279615.3,286047000.8,N
1618279635.2,286047002.4,N
1618279655.9,286047002.5,N
1618279675.7,286047004.1,Y
1618279695.6,286047002.8,P
1618279715.4,286046998.6,N
1618279735.2,286046998.7,N
1618279755.1,286046998.4,N
1618279756.0,286046998.4,N
1618279775.8,286046998.1,N
1618279795.7,286046999.9,N
1618279815.5,286046999.0,N
1618279835.3,286047001.1,N
1618279855.2,286046998.1,N
1618279875.0,286046998.1,N
1618279875.9,286046998.1,N
1618279895.7,286046998.2,N
1618279915.6,286047000.7,N
1618279935.4,286047002.8,N
1618279955.3,286047002.0,N
1618279975.1,286047004.4,N
1618279976.0,286047004.4,N
1618279995.8,286047002.4,N
1618280015.7,286047002.0,N
1618280035.5,286047001.9,N
1618280055.4,286047000.1,N
1618280075.2,286047000.4,N
1618280095.0,286047000.8,N
1618280096.0,286047000.8,N
1618280115.8,286047002.8,N
1618280135.6,286047000.0,N
1618280155.5,286047000.0,N
1618280175.3,286047001.2,N
1618280195.2,286046998.4,N
1618280215.9,286046998.4,N
1618280235.7,286047000.1,N
1618280255.6,286046999.7,N
1618280275.4,286047000.9,N
1618280295.2,286046998.1,N
1618280315.1,286046998.1,N
1618280316.0,286046998.1,N
1618280335.8,286046998.7,N
1618280355.7,286047000.6,N
1618280375.5,286046998.5,N
1618280395.3,286047000.7,N
1618280415.2,286046998.4,N
1618280435.0,286046996.9,N
1618280435.9,286046996.9,N
1618280455.8,286046998.0,N
1618280475.6,286046996.8,N
1618280495.4,286046995.3,N
1618280515.3,286046998.6,N
1618280535.1,286046996.9,N
1618280555.8,286046996.6,N
1618280575.7,286046997.3,N
1618280595.5,286046998.6,N
1618280615.4,286047001.1,N
1618280635.2,286046998.7,N
1618280655.0,286046998.6,N
1618280655.9,286046998.6,N
1618280675.8,286046999.1,N
1618280695.6,286046998.6,N
1618280715.5,286046998.3,N
1618280735.3,286047000.8,N
1618280755.1,286047000.2,N
1618280775.9,286047002.6,N
1618280795.7,286047001.1,N
1618280815.6,286046998.8,N
1618280835.4,286047000.5,N
1618280855.2,286047000.9,N
1618280875.1,286046999.5,N
1618280876.0,286046999.5,N
1618280895.8,286046998.6,N
1618280915.7,286046998.5,N
1618280935.5,286047000.0,N
1618280955.3,286046996.7,N
1618280975.2,286047001.2,N
1618280995.0,286046998.3,N
1618280995.9,286046998.3,N
1618281015.7,286046996.7,N
1618281035.6,286046999.6,N
1618281055.4,286046997.3,N
1618281075.3,286046999.4,N
1618281095.1,286046995.4,Y
1618281115.9,286046999.3,P
1618281135.7,286046998.8,P
1618281155.5,286046999.4,P
1618281175.4,286046999.6,N
1618281195.2,286046997.2,Y
1618281215.1,286046996.5,P
1618281216.0,286046996.5,N
1618281235.8,286046998.8,N
1618281255.7,286046998.2,N
1618281275.5,286046998.2,N
1618281295.3,286046998.2,N
1618281315.2,286046998.6,N
1618281335.0,286047000.7,N
1618281335.9,286047000.7,N
1618281355.8,286046998.7,N
1618281375.6,286046999.0,N
1618281395.4,286046999.6,N
1618281415.3,286046998.4,N
1618281435.1,286046998.4,N
1618281455.9,286046996.9,N
1618281475.7,286046999.1,N
1618281495.5,286046997.1,N
1618281515.4,286046996.6,N
1618281535.2,286046997.0,N
1618281555.0,286046994.9,Y
1618281555.9,286046994.9,P
1618281575.8,286046998.7,N
1618281595.6,286047000.2,N
1618281645.5,286046998.6,E
1618281655.4,286047001.1,N
1618281675.2,286047000.4,P
1618281695.1,286046996.6,P
1618281696.0,286046996.6,N
1618281715.8,286046996.9,N
1618281735.7,286046998.4,N
1618281755.5,286046999.2,N
1618281775.3,286046999.3,N
1618281795.2,286046996.8,N
1618281815.0,286046995.5,N
1618281815.9,286046995.5,N
1618281835.7,286046995.0,N
1618281855.6,286046995.3,N
1618281875.4,286046996.8,N
1618281895.3,286046998.0,N
1618281915.1,286046996.7,N
1618281916.0,286046996.7,N
1618281935.8,286046999.1,N
1618281955.7,286047001.0,N
1618281975.5,286047001.1,N
1618281995.3,286047002.8,N
1618282015.2,286047002.8,N
1618282035.0,286047000.4,N
1618282035.9,286047000.4,N
1618282055.8,286047000.7,N
1618282075.6,286047000.8,N
1618282095.4,286046998.6,N
1618282115.3,286047000.4,N
1618282135.1,286047000.3,N
1618282155.9,286046999.9,N
1618282175.7,286047000.0,N
1618282195.5,286047000.4,N
1618282215.4,286046999.0,N
1618282235.2,286046999.9,N
1618282255.0,286047004.4,N
1618282256.0,286047004.4,N
1618282275.8,286047003.1,N
1618282295.6,286047003.9,N
1618282315.5,286047001.5,N
1618282335.3,286047000.2,N
1618282355.1,286047001.2,N
1618282375.9,286047000.6,N
1618282395.7,286047000.9,N
1618282415.6,286047002.2,N
1618282435.4,286046999.7,N
1618282455.2,286047001.7,N
1618282475.1,286047003.1,N
1618282476.0,286047003.1,N
1618282495.8,286047004.2,N
1618282515.6,286047004.3,N
1618282535.5,286047002.0,N
1618282555.3,286047001.5,N
1618282575.2,286047002.6,N
1618282595.9,286047000.5,N
1618282615.7,286047000.5,N
1618282635.6,286046999.8,N
1618282655.4,286047004.2,N
1618282675.2,286047004.9,N
1618282695.1,286047005.0,N
1618282696.0,286047005.0,N
1618282715.8,286047004.5,N
1618282735.7,286047005.7,Y
1618282755.5,286047002.1,P
1618282775.3,286046999.8,N
1618282795.2,286047001.7,N
